Tracking 30995 objects as of 7-Jul-2025
HD Live streaming from Space Station
objects crossing your sky now

DELTA 1 DEB

Track DELTA 1 DEB now!
10-day predictions


NORAD ID: 12538
Int'l Code: 1976-077DT
Perigee: 1,502.5 km
Apogee: 1,822.4 km
Inclination: 102.8 °
Period: 119.4 minutes
Semi major axis: 8033 km
RCS: 0.0855 m2 (small)
Launch date: July 29, 1976
Source: United States (US)
Launch site: AIR FORCE WESTERN TEST RANGE (AFWTR)

Note: This is SATELLITE DEBRIS
Your satellite tracking list
Your tracking list is empty




NASA's NSSDC Master Catalog

Two Line Element Set (TLE):
1 12538U 76077DT  25187.20456848 -.00000069  00000-0 -27960-3 0  9990
2 12538 102.7823 283.5335 0199096 125.6239 305.9109 12.05732997990724
Source of the keplerian elements: AFSPC